1st Responders/1st Detectors/Storm Spotters Weather Summary for Simpson County, KY

Forecast Maps


Reg. NEXRAD Animation


National Fire Danger: Day 1 & 2 Map

Current NWS Watch/Warnings

SPC Convective Day 1 Outlook


Day 2 Outlook

(Click images to enlarge|Page will refresh every 5 minutes)
UK Ag. Weather Center Desktop Severe Weather Service[HERE]
Simpson County, KY Hazardous Weather Outlook Webcast
(9 AM to 9 PM Mon-Fri)
[Fast]
[Dial-up]


UKAWC 1st Detectors/1st Responders Precision Weather Forecast For SIMPSON County, Kentucky
(based on the NWS County Digital Forecast)

ISSUED AT 17:00 UTC ON FRIDAY MAR 22 2019
DAY FRIDAY
CDT 3HR 1P 2P 3P 4P 5P 6P
MAX/MIN -- -- -- -- -- 61°
TEMP 58° 58° 59° 59° 58° 56°
SKY COVER 3% 5% 8% 10% 13% 16%
Clouds
DEW PT 36° 36° 34° 34° 34° 34°
RH 43% 41% 39% 38% 41% 45%
POP 12HR -- -- -- -- -- --
RAIN/SNOW (liq.equ) 0.00in -- -- -- -- --
SNOWFALL 0in -- -- -- -- --
WIND SPEED(MPH) 15 15 15 15 14 10
WIND Gust(MPH) 24 25 25 24 23 18
WIND DIR W NW NW NW NW NW
DEW -- -- -- -- -- --
HeatIndex 58 58 59 59 58 56
Rain Showers -- -- -- -- -- --
Thunder Storm -- -- -- -- -- --
WIND CHILL -- -- -- -- -- --
SPRAY COND
DRY COND
LIVESTOCK COLDSTRESS



DAY SATURDAY SUNDAY MONDAY TUESDAY WEDNESDAY THURSDAY
CDT 6HR 7P 8P 9P 10P 11P MIDN 1A 2A 3A 4A 5A 6A 7A 8A 9A 10A 11A NOON 1P 2P 3P 4P 5P 6P 7P 8P 9P 10P 11P MIDN 1A 4A 7A 10A 1P 4P 7P 1A 7A 1P 7P 1A 7A 1P 7P 1A 7A 1P 7P 1A 7A 1P 7P
MAX/MIN -- -- -- -- -- -- -- -- -- -- -- -- 31° -- -- -- -- -- -- -- -- -- -- 58° -- -- -- -- -- -- -- -- 38° -- -- 61° -- -- 49° 61° -- -- 34° 50° -- -- 29° 59° -- -- 41° 68° --
TEMP 52° 49° 45° 43° 41° 40° 38° 36° 36° 34° 34° 32° 31° 31° 36° 41° 47° 50° 54° 56° 58° 58° 56° 54° 49° 47° 45° 43° 41° 40° 40° 40° 40° 54° 59° 61° 58° 52° 50° 61° 54° 40° 34° 49° 47° 36° 31° 58° 54° 45° 43° 65° 63°
SKY COVER 20% 16% 13% 10% 7% 4% 1% 1% 1% 2% 4% 3% 2% 5% 4% 2% 3% 3% 4% 7% 10% 13% 19% 24% 30% 34% 42% 46% 52% 63% 69% 72% 72% 78% 90% 89% 87% 86% 90% 85% 85% 65% 47% 21% 13% 9% 5% 5% 14% 15% 36% 41% 61%
Clouds
DEW PT 34° 34° 34° 34° 32° 31° 31° 29° 29° 27° 27° 27° 25° 25° 25° 25° 25° 25° 25° 25° 25° 27° 27° 29° 29° 29° 29° 29° 29° 29° 29° 29° 31° 36° 43° 45° 45° 45° 49° 52° 45° 31° 25° 23° 25° 25° 25° 34° 36° 36° 36° 40° 40°
RH 52% 56% 62% 67% 70% 72% 72% 75% 75% 75% 75% 78% 78% 74% 64% 53% 43% 35% 32% 29% 29% 30% 33% 37% 45% 49% 50% 54% 59% 64% 66% 66% 69% 52% 53% 57% 62% 80% 93% 71% 71% 69% 69% 37% 44% 61% 75% 41% 52% 68% 73% 39% 44%
POP 12HR 0% -- -- -- -- -- -- -- -- -- -- -- 1% -- -- -- -- -- -- -- -- -- -- -- 0% -- -- -- -- -- -- -- 6% -- -- -- 38% -- 80% -- 73% -- 19% -- 1% -- 0% -- 1% -- 2% -- 3%
RAIN/SNOW (liq.equ) 0.00in -- -- -- -- -- 0.00in -- -- -- -- -- 0.00in -- -- -- -- -- 0.00in -- -- -- -- -- 0.00in -- -- -- -- -- 0.00in -- 0.00in -- 0.01in -- 0.01in 0.00in 0.23in -- -- -- -- -- -- -- -- -- -- -- -- -- --
SNOWFALL 0in -- -- -- -- -- 0in -- -- -- -- -- 0in -- -- -- -- -- 0in -- -- -- -- -- 0in -- -- -- -- -- 0in -- 0in -- 0in -- 0in 0in 0in -- -- -- -- -- -- -- -- -- -- -- -- -- --
WIND SPEED(MPH) 8 7 7 6 6 6 5 5 5 5 5 2 2 2 5 5 5 5 5 5 5 5 5 2 2 2 2 2 2 2 2 2 5 7 9 9 8 8 8 8 10 10 10 10 7 6 5 6 6 7 7 14 10
WIND DIR N N N N N N NE NE NE NE NE NE NE NE NE E E E E E E E E E E E E E E E SE SE S S S S S S SW NW N N NE NE N NE E S S S S S S
HeatIndex 52 49 45 40 38 35 35 33 32 31 29 29 28 28 33 39 47 50 54 56 58 58 56 54 49 47 45 42 40 38 37 37 36 54 59 61 58 52 50 61 54 34 26 49 47 32 27 58 54 45 39 65 63
Rain Showers -- -- -- -- -- -- -- -- -- -- -- -- -- -- -- -- -- -- -- -- -- -- -- -- -- -- -- -- -- -- -- -- Chance Chance Chance Chance Slight Chance Definite Likely Chance Slight Chance -- -- -- -- -- -- -- -- -- -- -- --
Thunder Storm -- -- -- -- -- -- -- -- -- -- -- -- -- -- -- -- -- -- -- -- -- -- -- -- -- -- -- -- -- -- -- -- -- -- -- -- -- -- Slight Chance Chance -- -- -- -- -- -- -- -- -- -- -- -- --
WIND CHILL -- -- 41° 39° 37° 36° 35° 32° 32° 30° 30° -- -- -- 32° 38° -- -- -- -- -- -- -- -- -- -- -- -- -- -- -- -- 37° -- -- -- -- -- -- -- -- 34° 26° -- -- 31° 26° -- -- 41° 39° -- --
SPRAY COND
DRY COND
LIVESTOCK COLDSTRESS

Click on individual weather variable above in left-hand column (ie., TEMP, RH, QPF 12HR) to view state forecast maps






NWS 48 Hr. Forecast Maps,

Regional Hourly Observations For SIMPSON County, Kentucky
Issued at 100 PM EDT FRI MAR 22 2019
WESTERN AND SOUTH CENTRAL KENTUCKY
  
CITY           SKY/WX    TMP DP  RH WIND       PRES   REMARKS
PADUCAH        FAIR      61  36  39 W12G17    30.12F                  
HENDERSON      FAIR      53  40  61 W15G22    30.11R                  
OWENSBORO      FAIR      54  39  57 NW14G20   30.09S                  
HOPKINSVILLE   NOT AVBL                                               
BOWLING GREEN  FAIR      60  33  36 W14G23    30.07F                  
GLASGOW        FAIR      57  33  41 W14G22    30.06S                  


Current NOWCAST not available:
Nowcasts are not issued routinely during fair weather. Only when
precipitation or other significant weather is occuring in this county will these
forecasts be issued. Currently, there is no short term forecast in effect.


Fire Weather Forecast For SIMPSON County, KY
Provided by the National Weather Service:

Issued at: Fri Mar 22 13:05:01 EDT 2019

325 AM EDT Fri Mar 22 2019 /225 AM CDT Fri Mar 22 2019/

                      Today        Tonight      Sat          

CLOUD COVER           MClear       MClear       Clear        
PRECIP TYPE           None         None         None         
CHANCE PRECIP (%)     0            0            0            
TEMP (24H TREND)      58 (+7)      27 (-8)      58           
RH % (24H TREND)      40 (-18)     88 (-1)      27           
20FTWND-VAL/AM(MPH)   W  7 G19                  Lgt/Var      
20FTWND-RDG/PM(MPH)   NW 11 G19    N  5         Lgt/Var      
PRECIP AMOUNT         0.00         0.00         0.00         
MIXING HGT(FT-AGL/MSL)5400                      4244         
TRANSPORT WND (MPH)   NW 28                     E  2         
VENT RATE (KT-FT)     134650                    11827        
DISPERSION            Excellent                 Poor         
DSI                   SLGT UNSTBL  MOD UNSTBL   SLGT UNSTBL  
LAL                   1            1            1            
HAINES INDEX          3            3            4            
ADI EARLY             64 GOOD      14 GEN POOR  14 GEN POOR  
ADI LATE              86 GOOD      6 VERY POOR  16 GEN POOR  
MAX LVORI EARLY       4            3            4            
MAX LVORI LATE        1            4            2            

REMARKS...ADI IS ATMOSPHERIC DISPERSION INDEX BY LAVDAS.        
LVORI IS LOW VISIBILITY OCCURRENCE RISK INDEX.

.SUNDAY...Mostly cloudy with a 50 percent chance of rain showers.
Lows in the upper 30s. Highs in the lower 60s. Light winds. 
.MONDAY...Rain showers likely and chance of thunderstorms. Lows
in the upper 40s. Highs around 60. South winds around 5 mph. 
.TUESDAY...Partly cloudy. Cooler. Lows in the lower 30s. Highs
around 50. Northeast winds 5 to 10 mph. 
.WEDNESDAY...Mostly clear. Lows in the upper 20s. Highs in the
upper 50s. South winds 5 to 10 mph. 
.THURSDAY...Partly cloudy. Lows in the lower 40s. Highs in the
upper 60s. South winds 5 to 15 mph. 

SPC's Fire Weather Web Tool (Excellent!), SPC's Fire Weather Outlooks, NWS Fire Weather WEB, Fire Danger Class Map,
Keetch-Byram Drought Index, ROMAN Web, Haines Index ,
WFAS's 10-hr Dead Fuel Moist., WFAS's 100-hr Dead Fuel Moist., Probablity of Ignition, Visual blackness Map, Palmer Drought Index, HPC's Rainfall Forecast Maps


Hazardous Weather Outlook For SIMPSON County, Kentucky
428 AM EDT Fri Mar 22 2019 /328 AM CDT Fri Mar 22 2019/

 DAY ONE  Today and Tonight.

No hazardous weather is expected at this time.

 DAYS TWO THROUGH SEVEN  Saturday through Thursday.

No hazardous weather is expected at this time.

 SPOTTER INFORMATION STATEMENT  

Spotter activation will not be needed.

Latest SIMPSON County, Kentucky Watches, Warnings and Advisories.
Additional Drought Info.: UKAWC Drought Page, Kentucky Drought Watch


7-Day Forecast For SIMPSON County, KY

TODAY
Sunny. Highs around 60. West winds 5 to 10 mph increasing to northwest 15 to 20 mph in the afternoon.

TONIGHT
Mostly clear. Lows in the upper 20s. North winds up to 10 mph.

SATURDAY
Sunny. Highs in the upper 50s. Northeast winds up to 5 mph.

SATURDAY NIGHT
Partly cloudy. Lows in the upper 30s. East winds around 5 mph.

SUNDAY
Mostly cloudy with a 40 percent chance of rain showers. Highs in the lower 60s. South winds 5 to 15 mph.

SUNDAY NIGHT
Showers likely. Lows around 50. Chance of showers 70 percent.

MONDAY
Showers likely and chance of thunderstorms. Highs in the lower 60s. Chance of precipitation 70 percent.

MONDAY NIGHT
Mostly cloudy with a 20 percent chance of showers. Lows in the mid 30s.

TUESDAY
Partly cloudy. Highs in the lower 50s.

TUESDAY NIGHT
Mostly clear. Lows around 30.

WEDNESDAY
Sunny. Highs around 60.

WEDNESDAY NIGHT
Mostly clear. Lows in the lower 40s.

THURSDAY
Partly cloudy. Highs in the upper 60s.

Ag Weather Center, Department of Biosystems & Agricultural Engineering, University of Kentucky